Theta_e
333 334 333 328 330 332 329 327 325 321 318 317 315 313 311 310 310 309 309 308 308 309
335 332 332 330 331 328 322 318 315 314 311 309 309 308 306 305 305 305 305 305 305 305
324 325 323 319 315 314 314 313 311 309 307 305 305 304 304 303 304 303 303 304 305 305
317 316 314 312 311 312 311 311 307 306 304 304 303 303 303 303 303 303 303 304 304 306
311 310 309 309 309 308 307 306 305 304 303 302 301 301 301 301 302 302 302 303 304 305
309 308 307 306 306 305 303 303 302 302 301 300 300 300 300 301 301 301 302 303 304 304
305 306 305 305 304 303 302 301 300 300 299 299 298 299 300 300 300 300 301 302 301 300
304 304 304 304 303 303 302 300 300 298 298 298 298 299 300 298 299 299 298 299 298 299
301 301 301 300 301 301 299 299 298 297 296 295 296 297 300 298 297 298 297 296 297 299
301 300 299 300 300 299 298 298 297 296 295 293 294 295 296 298 296 297 297 296 296 296
299 298 297 297 297 297 297 296 295 294 294 293 294 294 294 295 295 295 297 297 296 295
297 296 295 294 294 294 295 296 295 293 293 292 292 293 293 294 293 294 295 297 296 294
294 293 292 292 291 291 292 293 293 292 292 293 292 293 293 294 293 293 293 296 294 294
291 290 290 289 289 290 290 290 290 290 292 292 292 293 292 293 293 292 290 290 290 291
Wind_Speed
9 7 9 8 8 5 3 4 7 6 6 7 9 7 7 6 5 4 3 3 3 2
12 14 12 11 5 7 8 7 7 7 7 8 8 7 7 6 3 1 1 5 4 3
11 9 12 13 11 12 9 9 7 7 8 8 8 8 6 2 3 3 3 4 7 6
13 12 13 13 12 11 10 7 9 8 9 9 9 5 1 3 6 6 7 7 8 8
14 14 14 13 13 10 11 8 9 9 8 7 6 6 9 8 7 8 8 8 9 9
14 13 13 12 11 10 11 10 9 8 9 10 11 10 8 6 8 8 8 8 8 9
13 12 12 11 10 11 10 10 9 9 9 10 8 8 6 7 7 6 8 10 10 9
13 12 11 12 11 10 10 9 8 9 10 8 9 8 8 7 7 9 10 10 9 7
12 12 12 10 10 10 9 9 9 9 9 9 8 13 13 8 7 9 9 9 9 9
11 13 10 10 10 9 9 7 8 8 9 10 9 16 14 14 8 8 8 9 8 9
12 12 10 10 9 9 7 8 7 8 8 8 9 17 16 13 9 7 7 7 8 11
12 11 9 10 8 5 6 7 8 8 9 9 9 17 16 10 8 8 8 7 8 11
11 10 10 8 8 5 6 7 7 8 9 13 9 15 14 10 5 8 8 7 9 13
11 10 9 8 6 6 7 8 8 8 8 9 10 10 16 16 8 7 7 8 9 9
Wind_Direction
119 103 104 104 117 118 114 74 52 53 57 53 63 64 60 53 46 30 19 8 12 338
130 123 127 106 130 102 86 90 82 69 72 63 63 59 60 54 39 299 355 24 13 8
95 111 104 107 96 87 88 91 101 110 82 69 59 49 47 47 14 37 20 22 22 16
102 102 100 96 94 96 96 101 86 76 70 55 46 35 75 65 32 34 28 21 18 9
97 92 92 93 100 106 101 96 89 78 80 80 63 45 43 38 21 29 21 14 13 9
88 91 90 91 97 102 94 80 77 80 70 55 43 38 33 30 32 25 19 17 18 28
89 90 93 94 89 84 83 81 73 65 66 59 50 40 29 38 36 29 31 28 20 20
95 94 95 90 86 86 85 84 80 76 62 56 47 31 35 41 37 37 32 26 18 2
84 88 83 83 87 87 80 69 69 69 68 56 49 32 40 47 43 38 32 22 8 5
97 91 87 91 95 91 80 77 70 64 61 54 38 29 26 36 36 33 22 23 9 8
92 84 80 81 80 76 78 72 69 57 53 53 36 28 24 25 29 27 24 21 14 10
86 85 82 77 74 65 74 66 63 56 49 45 35 21 20 21 23 25 23 16 20 15
78 81 81 82 73 61 62 64 65 58 44 42 33 17 15 22 21 25 24 15 14 13
74 76 75 73 63 66 66 64 51 53 40 37 28 18 20 20 28 26 27 15 9 6